Regional Weather Roundup
Issued by NWS

Home | Current Version | Previous Version | Graphics & Text | Print | Product List | Glossary On
Versions: 1 2 3 4 5 6 7 8 9 10 11 12 13 14 15 16 17 18 19 20 21 22 23 24 25 26 27 28 29 30 31 32 33 34 35 36 37 38 39 40 41 42 43 44 45 46 47 48 49 50
000
ASUS43 KDTX 170701
RWRMI
MICHIGAN HOURLY REGIONAL WEATHER ROUNDUP
NATIONAL WEATHER SERVICE DETROIT/PONTIAC MI
200 AM EST FRI NOV 17 2017

NOTE: "FAIR" INDICATES FEW OR NO CLOUDS BELOW 12,000 FEET WITH NO
SIGNIFICANT WEATHER AND/OR OBSTRUCTION TO VISIBILITY.

MIZ047>049-052>055-059>063-066>070-074>076-081>083-170800-
SOUTHEAST LOWER MICHIGAN

CITY           SKY/WX    TMP DP  RH WIND       PRES   REMARKS
ADRIAN         CLOUDY    32  28  85 E5        30.24F WCI  27
ALMA           PTCLDY    27  26  97 CALM      30.24F
ANN ARBOR      CLOUDY    29  26  89 CALM      30.24S
BAD AXE        CLOUDY    32  25  74 N5        30.24F WCI  27
CARO           MOCLDY    30  23  76 CALM      30.24R
DETROIT CITY   CLOUDY    35  26  69 CALM      30.26S
DETROIT        CLOUDY    33  26  75 CALM      30.25S
FLINT          CLOUDY    31  24  75 CALM      30.25S
GROSSE ILE     CLOUDY    35  28  78 E5        30.24S WCI  30
HILLSDALE      CLOUDY    32  28  86 CALM      30.21S
HOWELL         CLOUDY    31  27  87 CALM      30.23S

CITY           SKY/WX    TMP DP  RH WIND       PRES   REMARKS
JACKSON        CLOUDY    29  26  89 S3        30.22F
LAMBERTVILLE   CLOUDY    37  31  80 CALM      30.24F
LANSING        CLOUDY    30  27  88 CALM      30.24F
LAPEER         CLOUDY    31  25  77 CALM      30.25R
MASON          CLOUDY    30  28  92 CALM      30.23F
MONROE         PTCLDY    31  28  87 CALM      30.24F
MT. CLEMENS    CLOUDY    33  26  76 N6        30.23F WCI  27
PONTIAC        CLOUDY    33  26  75 CALM      30.22S
PORT HOPE        N/A     33  24  69 N5G16     30.22F WCI  29
PORT HURON     CLOUDY    30  21  69 W5        30.25F WCI  25
TRI CITIES     PTCLDY    29  25  85 CALM      30.26R
MIDLAND        FAIR      27  24  87 CALM      30.25S
TROY           CLOUDY    37  28  70 NE3       30.26R
SAGINAW HB     PTCLDY    30  27  86 CALM      30.25S
$$
MIZ043>046-050>051-056>058-064>065-071>073-077>080-170800-
SOUTHWEST LOWER MICHIGAN

CITY           SKY/WX    TMP DP  RH WIND       PRES   REMARKS
BATTLE CREEK   CLOUDY    33  28  81 E5        30.22F WCI  29
BENTON HARBOR  CLOUDY    37  32  82 SE6       30.20F WCI  32
BIG RAPIDS     PTCLDY    28  24  85 CALM      30.22R
COLDWATER      CLOUDY    35  29  78 CALM      30.21F
FREMONT        FAIR      29  27  91 E3        30.21S
HOLLAND        MOCLDY    32  28  85 SE6       30.22S WCI  26
GRAND RAPIDS   CLOUDY    30  29  96 SE6       30.21F WCI  24
IONIA          CLOUDY    31  28  86 E6        30.21F WCI  25
KALAMAZOO      CLOUDY    36  28  73 S5        30.22F WCI  32
LUDINGTON      CLOUDY    28  25  86 CALM      30.22R
MARSHALL       CLOUDY    32  28  86 CALM      30.22S
MOUNT PLEASANT MOCLDY    28  24  86 CALM      30.23F
MUSKEGON       MOCLDY    30  26  85 SE3       30.23S
SOUTH HAVEN    CLOUDY    34  31  89 CALM      30.21F
$$
MIZ016>042-170800-
NORTHERN LOWER MICHIGAN

CITY           SKY/WX    TMP DP  RH WIND       PRES   REMARKS
ALPENA         CLOUDY    28  21  75 E5        30.25F WCI  23
BEAVER ISLAND  CLOUDY    27  24  88 E3        30.22F
BELLAIRE       PTCLDY    27  24  89 CALM      30.24F
CADILLAC       CLOUDY    24  21  89 CALM      30.19S
CHARLEVOIX     CLOUDY    28  20  74 SE6       30.26F WCI  21
FRANKFORT      PTCLDY    30  26  83 CALM      30.22R
GAYLORD        CLOUDY    22  18  85 CALM      30.20F
GRAYLING       CLOUDY    23  19  86 CALM      30.22F
HARBOR SPRINGS CLOUDY    25  22  89 CALM      30.24S
HOUGHTON LAKE  PTCLDY    24  20  84 CALM      30.22S
MANISTEE       PTCLDY    27  24  89 SE3       30.22F
OSCODA         CLOUDY    27  19  71 N5        30.25S WCI  22
PELLSTON       CLOUDY    27  20  75 E7        30.24F WCI  19
ROGERS CITY    CLOUDY    29  22  76 E5        30.26S WCI  24
TRAVERSE CITY  CLOUDY    29  22  75 SE5       30.22S WCI  24
$$
MIZ007>008-015-170800-
EASTERN UPPER MICHIGAN

CITY           SKY/WX    TMP DP  RH WIND       PRES   REMARKS
KINROSS        PTCLDY    19  16  88 E6        30.26S WCI  11
MACKINAC ISLAN CLOUDY    28  21  73 CALM      30.24S
NEWBERRY       CLOUDY    22  20  91 E8        30.22F WCI  13
S. S. MARIE    CLOUDY    22  15  75 SE5       30.26S WCI  16
MUNISING         N/A     25  21  85 S6        30.21R WCI  18
$$
MIZ004>006-011>014-085-170800-
CENTRAL UPPER MICHIGAN

CITY           SKY/WX    TMP DP  RH WIND       PRES   REMARKS
MANISTIQUE     CLOUDY    24  19  81 E6        30.20F WCI  17
ESCANABA       CLOUDY    29  24  82 SE6       30.21F WCI  23
MENOMINEE      CLOUDY    31  25  78 NW3       30.22F
SAWYER-GWINN   CLOUDY    24  20  87 S9        30.17S WCI  14
$$
MIZ001>003-009>011-084-170800-
WESTERN UPPER MICHIGAN

CITY           SKY/WX    TMP DP  RH WIND       PRES   REMARKS
IRON MOUNTAIN  CLOUDY    27  19  72 SE6       30.17F WCI  20
HOUGHTON       MOCLDY    26  20  77 SE15      30.11F WCI  14
COPPER HARBOR    N/A     31  22  69 VRB7      30.15F WCI  24
IRONWOOD       CLOUDY    29  24  82 S22G30    29.97F WCI  15
$$

ABBREVIATIONS USED IN REMARKS
   TC - TEMPERATURE IN CELSIUS
  WCI - WIND CHILL INDEX
   HX - HEAT INDEX
  VSB - VISIBILITY





USA.gov is the U.S. government's official web portal to all federal, state and local government web resources and services.